Regional Weather Roundup
Issued by NWS

Home | Current Version | Previous Version | Text Only | Print | Product List | Glossary On
Versions: 1 2 3 4 5 6 7 8 9 10 11 12 13 14 15 16 17 18 19 20 21 22 23 24 25 26 27 28 29 30 31 32 33 34 35 36 37 38 39 40 41 42 43 44 45 46 47 48 49 50
273
ASUS44 KLIX 242011
RWRLA
LOUISIANA WEATHER ROUNDUP
NATIONAL WEATHER SERVICE NEW ORLEANS LA
300 PM CDT TUE MAY 24 2016

NOTE: "FAIR" INDICATES FEW OR NO CLOUDS BELOW 12,000 FEET WITH NO
      SIGNIFICANT WEATHER AND/OR OBSTRUCTIONS TO VISIBILITY.
      SKY/WX - SKY CONDITION AND SIGNIFICANT WEATHER.
      TMP - AIR TEMPERATURE.    DP   - DEWPOINT TEMPERATURE.
      RH  - RELATIVE HUMIDITY.  PRES - PRESSURE.
      HX  - HEAT INDEX.         WCI  - WIND CHILL INDEX.

*  THESE STATIONS ARE NOT NWS OR FAA STATIONS AND ARE NOT UNDER
   NWS QUALITY CONTROL.

LAZ040-048-061>063-065-066-069-242100-
SOUTHEAST LOUISIANA

CITY           SKY/WX    TMP DP  RH WIND       PRES   REMARKS
N.O. AUDUBON   NOT AVBL
N.O. INTL ARPT MOSUNNY   88  71  57 S14       30.07F
N.O. LAKEFRONT SUNNY     85  69  58 E14       30.08F
N.O. DOWNTOWN* FAIR      88  70  55 S10G17    30.08F
RESERVE*       FAIR      88  71  57 E6G17     30.06F
SLIDELL        PTSUNNY   85  69  58 S13       30.08F
BATON ROUGE    PTSUNNY   88  66  48 SE9       30.06S
BOOTHVILLE     MOSUNNY   81  71  71 E10       30.10F
BELLE CHASSE   PTSUNNY   84  71  65 E12       30.08F
BOGALUSA*      FAIR      88  62  42 SE6       30.10S
GALLIANO*      CLOUDY    84  71  66 SE6       30.08F
NEW ROADS*     FAIR      86  70  58 E6        30.05F
GONZALES*      MOCLDY    88  69  53 SE6       30.05S
HAMMOND*       PTSUNNY   86  64  48 S10       30.08S
HOUMA*         MOSUNNY   84  73  70 S12       30.07F
PORT FOURCHON* PTCLDY    82  73  74 SE13      30.09S

$$

LAZ041-044-053-054-242100-
SOUTHWEST LOUISIANA

CITY           SKY/WX    TMP DP  RH WIND       PRES   REMARKS
LAKE CHARLES   PTSUNNY   86  72  62 S13       30.03F
LAFAYETTE      PTSUNNY   87  70  56 VRB7G17   30.05S
PATTERSON      MOSUNNY   86  72  62 SE10      30.06F
SALT POINT       N/A     84  75  74 VRB6      30.05S
NEW IBERIA     MOSUNNY   86  69  56 S8G17     30.06S
CHENAULT AIRPK CLOUDY    84  73  70 SE10G18   30.04S

$$

LAZ027-028-242100-
CENTRAL LOUISIANA

CITY           SKY/WX    TMP DP  RH WIND       PRES   REMARKS
FORT POLK      MOSUNNY   88  71  58 SE12      30.02F
ALEXANDRIA INT MOSUNNY   88  68  51 S13       30.01F
ALEXANDRIA     MOSUNNY   90  70  51 SE9       30.04F HX  95

$$

LAZ001-002-242100-
NORTHWEST LOUISIANA

CITY           SKY/WX    TMP DP  RH WIND       PRES   REMARKS
SHREVEPORT     CLOUDY    84  71  65 S9        30.01F
BARKSDALE AFB  MOSUNNY   85  70  61 SE8       30.01F
DTN SHREVEPORT PTSUNNY   84  70  62 SE9       30.01F

$$

LAZ014-016-242100-
NORTHEAST LOUISIANA

CITY           SKY/WX    TMP DP  RH WIND       PRES   REMARKS
MONROE         SUNNY     89  63  41 S10       30.02F
TALLULAH       SUNNY     90  58  33 S8G17     30.04F

$$





USA.gov is the U.S. government's official web portal to all federal, state and local government web resources and services.